Weather Roundup
Issued by NWS Chicago, IL

Home | Current Version | Previous Version | Text Only | Print | Product List | Glossary Off
Versions: 1 2 3 4 5 6 7 8 9 10 11 12 13 14 15 16 17 18 19 20 21 22 23 24 25 26 27 28 29 30 31 32 33 34 35 36 37 38 39 40 41 42 43 44 45 46 47 48 49 50

000
NZUS59 KLOT 281158
HRRLOT

CHICAGO AREA WEATHER ROUNDUP
NATIONAL WEATHER SERVICE CHICAGO/ROMEOVILLE IL
700 AM CDT MON JUL 28 2014

NOTE: "FAIR" INDICATES FEW OR NO CLOUDS BELOW 12,000 FEET WITH NO
SIGNIFICANT WEATHER AND/OR OBSTRUCTIONS TO VISIBILITY.

* THESE STATIONS ARE NOT UNDER NWS QUALITY CONTROL. THEY ALSO MAY NOT
  REPORT WEATHER SUCH AS PRECIPITATION OR FOG.

ILZ005-006-012>014-019>023-281300-
NORTHEAST ILLINOIS

CITY           SKY/WX    TMP DP  RH WIND       PRES   REMARKS
OHARE          MOSUNNY   60  49  66 N16       30.01R
6HR MIN TEMP:  59; 6HR MAX TEMP:  66;

MIDWAY         MOSUNNY   62  50  64 N14       30.00R
6HR MIN TEMP:  62; 6HR MAX TEMP:  67;

AURORA         SUNNY     57  51  80 NW13      30.04R
6HR MIN TEMP:  57; 6HR MAX TEMP:  65;

WAUKEGAN       SUNNY     56  48  74 NW6       30.01R
6HR MIN TEMP:  55; 6HR MAX TEMP:  63;

DUPAGE AIRPORT SUNNY     59  52  77 N12       30.02R
6HR MIN TEMP:  57; 6HR MAX TEMP:  65;

WHEELING       SUNNY     60  51  72 NW9       30.03R
6HR MIN TEMP:  59; 6HR MAX TEMP:  66;

NORTHERLY IS     N/A     61  50  67 N14         N/A
$$

WIZ051-052-058>065-066-070>072-281300-
SOUTHEAST WISCONSIN

CITY           SKY/WX    TMP DP  RH WIND       PRES   REMARKS
MILWAUKEE      MOSUNNY   56  46  69 N13       30.04R
6HR MIN TEMP:  56; 6HR MAX TEMP:  62;

KENOSHA*       SUNNY     56  49  77 NW10      30.03R
RACINE*        SUNNY     57  47  69 N12       30.04R
$$

INZ001>003-010>013-019-020-281300-
NORTHWEST INDIANA

CITY           SKY/WX    TMP DP  RH WIND       PRES   REMARKS
GARY*          PTSUNNY   63  54  72 N17       30.00R
MICHIGAN CITY* NOT AVBL
RENSSELAER*    NOT AVBL
VALPARAISO     CLOUDY    60  54  80 N10       29.99R
$$

LMZ740>746-281300-
SOUTHERN LAKE MICHIGAN

STATION/POSITION TIME  SKY/WX   TEMP WIND        PRES    VSBY
                                AIR  DIR/SP/G
                 (UTC)          (F)  (DEG/KT/KT) (MB)    (MI)
HARRISON CRIB    1100            61  340/ 24/ 29   N/A
BURNHAM HARBOR   1100            61  310/ 14/ 15   N/A
CALUMET HARBOR   1100            61  320/  7/ 13 1014.4R
BURNS HARBOR     NOT AVBL
MICHIGAN CITY    1100            61  330/ 28/ 32   N/A
$$

ABBREVIATIONS USED IN REMARKS
   TC - TEMPERATURE IN CELSIUS
  WCI - WIND CHILL INDEX
   HX - HEAT INDEX
  VSB - VISIBILITY
$$



USA.gov is the U.S. government's official web portal to all federal, state and local government web resources and services.